• In Uzbekistan
  • List of Countries
  • For 7 days
  • Water Temperature
  • Satellite Maps
  • Weather Map
  • Weather Widgets
  • user-avatar
    Login

    Hourly Weather Larne

    Today, 19 October, Thursday

    Time Temperature Precipitation Wind Pressure Humidity
    00:00 +12°C° 0.1 mm 8 mps 749 mmHg 94%
    01:00 +11°C° 0.1 mm 8 mps 748 mmHg 94%
    02:00 +11°C° 0.1 mm 8 mps 748 mmHg 94%
    03:00 +11°C° 0.1 mm 7 mps 747 mmHg 95%
    04:00 +11°C° 0.1 mm 7 mps 747 mmHg 94%
    05:00 +11°C° 0.1 mm 7 mps 747 mmHg 94%
    06:00 +11°C° 0.1 mm 7 mps 746 mmHg 94%
    07:00 +11°C° 0.1 mm 7 mps 746 mmHg 93%
    08:00 +11°C° 0.1 mm 8 mps 746 mmHg 92%
    09:00 +12°C° 0.1 mm 8 mps 745 mmHg 91%
    10:00 +12°C° 0.4 mm 8 mps 745 mmHg 91%
    11:00 +12°C° 0.4 mm 8 mps 745 mmHg 90%
    12:00 +12°C° 0.4 mm 8 mps 745 mmHg 89%
    13:00 +12°C° 0.4 mm 8 mps 745 mmHg 90%
    14:00 +12°C° 0.4 mm 8 mps 744 mmHg 91%
    15:00 +12°C° 0.4 mm 8 mps 744 mmHg 92%
    16:00 +12°C° 0.6 mm 7 mps 744 mmHg 93%
    17:00 +11°C° 0.6 mm 6 mps 744 mmHg 95%
    18:00 +12°C° 0.6 mm 5 mps 744 mmHg 96%
    19:00 +12°C° 1.4 mm 4 mps 745 mmHg 95%
    20:00 +11°C° 1.4 mm 4 mps 745 mmHg 95%
    21:00 +11°C° 1.4 mm 4 mps 745 mmHg 94%
    22:00 +10°C° 0.6 mm 5 mps 746 mmHg 93%
    23:00 +9°C° 0.6 mm 6 mps 746 mmHg 92%

    Tomorrow, 20 October, Friday

    Time Temperature Precipitation Wind Pressure Humidity
    00:00 +9°C° 0.6 mm 7 mps 746 mmHg 91%
    01:00 +9°C° 0.1 mm 7 mps 746 mmHg 91%
    02:00 +8°C° 0.1 mm 6 mps 747 mmHg 91%
    03:00 +8°C° 0.1 mm 6 mps 747 mmHg 90%
    04:00 +8°C° 0 mm 6 mps 748 mmHg 90%
    05:00 +7°C° 0 mm 6 mps 748 mmHg 89%
    06:00 +7°C° 0 mm 6 mps 748 mmHg 88%
    07:00 +7°C° 0 mm 5 mps 748 mmHg 87%
    08:00 +7°C° 0 mm 4 mps 748 mmHg 86%
    09:00 +9°C° 0 mm 3 mps 749 mmHg 85%
    10:00 +10°C° 0 mm 3 mps 749 mmHg 82%
    11:00 +10°C° 0 mm 2 mps 749 mmHg 79%
    12:00 +12°C° 0 mm 2 mps 749 mmHg 76%
    13:00 +11°C° 0 mm 3 mps 748 mmHg 77%
    14:00 +11°C° 0 mm 4 mps 747 mmHg 78%
    15:00 +10°C° 0 mm 6 mps 747 mmHg 79%
    16:00 +9°C° 0.1 mm 7 mps 746 mmHg 79%
    17:00 +9°C° 0.1 mm 8 mps 745 mmHg 80%
    18:00 +8°C° 0.1 mm 9 mps 744 mmHg 80%
    19:00 +8°C° 1 mm 10 mps 743 mmHg 84%
    20:00 +9°C° 1 mm 11 mps 742 mmHg 87%
    21:00 +9°C° 1 mm 12 mps 741 mmHg 90%
    22:00 +9°C° 0.6 mm 11 mps 740 mmHg 90%
    23:00 +9°C° 0.6 mm 10 mps 739 mmHg 89%

    Day after tomorrow, 21 October, Saturday

    Time Temperature Precipitation Wind Pressure Humidity
    00:00 +11°C° 0.6 mm 9 mps 738 mmHg 88%
    01:00 +9°C° 0.1 mm 10 mps 737 mmHg 87%
    02:00 +9°C° 0.1 mm 10 mps 736 mmHg 86%
    03:00 +9°C° 0.1 mm 11 mps 735 mmHg 84%
    04:00 +9°C° 0.2 mm 11 mps 734 mmHg 85%
    05:00 +9°C° 0.2 mm 11 mps 733 mmHg 85%
    06:00 +9°C° 0.2 mm 11 mps 732 mmHg 85%
    07:00 +10°C° 0.7 mm 9 mps 731 mmHg 87%
    08:00 +11°C° 0.7 mm 8 mps 731 mmHg 89%
    09:00 +11°C° 0.7 mm 7 mps 730 mmHg 91%
    10:00 +11°C° 1.1 mm 6 mps 731 mmHg 91%
    11:00 +11°C° 1.1 mm 6 mps 731 mmHg 91%
    12:00 +12°C° 1.1 mm 5 mps 731 mmHg 91%
    13:00 +11°C° 0.9 mm 7 mps 733 mmHg 89%
    14:00 +11°C° 0.9 mm 8 mps 734 mmHg 88%
    15:00 +11°C° 0.9 mm 10 mps 735 mmHg 87%
    16:00 +9°C° 0.3 mm 10 mps 736 mmHg 87%
    17:00 +9°C° 0.3 mm 11 mps 738 mmHg 87%
    18:00 +9°C° 0.3 mm 11 mps 739 mmHg 88%
    19:00 +8°C° 0.3 mm 11 mps 740 mmHg 88%
    20:00 +8°C° 0.3 mm 12 mps 741 mmHg 87%
    21:00 +8°C° 0.3 mm 12 mps 742 mmHg 87%
    22:00 +8°C° 0.4 mm 13 mps 743 mmHg 87%
    23:00 +8°C° 0.4 mm 13 mps 744 mmHg 86%

    22 October, Sunday

    Time Temperature Precipitation Wind Pressure Humidity
    00:00 +8°C° 0.4 mm 14 mps 745 mmHg 86%
    01:00 +6°C° 0.5 mm 14 mps 746 mmHg 86%
    02:00 +6°C° 0.5 mm 14 mps 747 mmHg 86%
    03:00 +6°C° 0.5 mm 14 mps 747 mmHg 85%
    04:00 +6°C° 0.4 mm 14 mps 748 mmHg 84%
    05:00 +6°C° 0.4 mm 14 mps 749 mmHg 83%
    06:00 +6°C° 0.4 mm 14 mps 749 mmHg 81%
    07:00 +6°C° 0.1 mm 14 mps 750 mmHg 80%
    08:00 +6°C° 0.1 mm 14 mps 751 mmHg 79%
    09:00 +7°C° 0.1 mm 13 mps 751 mmHg 77%
    10:00 +8°C° 0 mm 13 mps 752 mmHg 76%
    11:00 +8°C° 0 mm 12 mps 753 mmHg 74%
    12:00 +9°C° 0 mm 12 mps 753 mmHg 73%
    13:00 +9°C° 0 mm 11 mps 754 mmHg 74%
    14:00 +9°C° 0 mm 10 mps 754 mmHg 76%
    15:00 +10°C° 0 mm 9 mps 755 mmHg 77%
    16:00 +10°C° 0 mm 8 mps 755 mmHg 79%
    17:00 +9°C° 0 mm 7 mps 755 mmHg 81%
    18:00 +9°C° 0 mm 6 mps 755 mmHg 83%
    19:00 +9°C° 0 mm 6 mps 755 mmHg 84%
    20:00 +9°C° 0 mm 5 mps 755 mmHg 85%
    21:00 +9°C° 0 mm 5 mps 755 mmHg 86%
    22:00 +9°C° 1 mm 5 mps 755 mmHg 89%
    23:00 +9°C° 1 mm 6 mps 754 mmHg 91%

    23 October, Monday

    Time Temperature Precipitation Wind Pressure Humidity
    00:00 +9°C° 1 mm 6 mps 753 mmHg 94%
    01:00 +10°C° 0.8 mm 6 mps 753 mmHg 94%
    02:00 +11°C° 0.8 mm 6 mps 752 mmHg 95%
    03:00 +11°C° 0.8 mm 7 mps 752 mmHg 95%
    04:00 +13°C° 0.3 mm 6 mps 751 mmHg 95%
    05:00 +13°C° 0.3 mm 6 mps 751 mmHg 95%
    06:00 +13°C° 0.3 mm 6 mps 751 mmHg 95%
    07:00 +14°C° 0 mm 6 mps 751 mmHg 95%
    08:00 +14°C° 0 mm 5 mps 752 mmHg 95%
    09:00 +14°C° 0 mm 5 mps 752 mmHg 95%
    10:00 +14°C° 0 mm 5 mps 752 mmHg 95%
    11:00 +15°C° 0 mm 5 mps 751 mmHg 94%
    12:00 +15°C° 0 mm 5 mps 751 mmHg 93%
    13:00 +15°C° 0.3 mm 6 mps 751 mmHg 93%
    14:00 +15°C° 0.3 mm 7 mps 750 mmHg 94%
    15:00 +15°C° 0.3 mm 8 mps 749 mmHg 94%
    16:00 +15°C° 0.2 mm 8 mps 749 mmHg 93%
    17:00 +16°C° 0.2 mm 9 mps 749 mmHg 92%
    18:00 +16°C° 0.2 mm 10 mps 748 mmHg 91%
    19:00 +16°C° 0.2 mm 9 mps 749 mmHg 90%
    20:00 +15°C° 0.2 mm 9 mps 750 mmHg 90%
    21:00 +15°C° 0.2 mm 8 mps 751 mmHg 89%
    22:00 +14°C° 0.1 mm 7 mps 751 mmHg 90%
    23:00 +13°C° 0.1 mm 6 mps 752 mmHg 91%

    24 October, Tuesday

    Time Temperature Precipitation Wind Pressure Humidity
    00:00 +12°C° 0.1 mm 5 mps 753 mmHg 92%
    01:00 +10°C° 0 mm 5 mps 753 mmHg 93%
    02:00 +10°C° 0 mm 5 mps 754 mmHg 93%
    03:00 +10°C° 0 mm 4 mps 754 mmHg 94%
    04:00 +9°C° 0 mm 5 mps 754 mmHg 94%
    05:00 +9°C° 0 mm 5 mps 754 mmHg 94%
    06:00 +9°C° 0 mm 5 mps 755 mmHg 95%
    07:00 +10°C° 0 mm 5 mps 755 mmHg 93%
    08:00 +10°C° 0 mm 6 mps 755 mmHg 92%
    09:00 +10°C° 0 mm 6 mps 756 mmHg 91%
    10:00 +11°C° 0 mm 6 mps 756 mmHg 88%
    11:00 +11°C° 0 mm 6 mps 756 mmHg 86%
    12:00 +11°C° 0 mm 6 mps 757 mmHg 84%
    13:00 +12°C° 0.1 mm 5 mps 756 mmHg 85%
    14:00 +12°C° 0.1 mm 5 mps 756 mmHg 86%
    15:00 +12°C° 0.1 mm 4 mps 756 mmHg 86%
    16:00 +12°C° 0.3 mm 5 mps 756 mmHg 89%
    17:00 +12°C° 0.3 mm 5 mps 756 mmHg 92%
    18:00 +10°C° 0.3 mm 5 mps 756 mmHg 94%
    19:00 +10°C° 0.1 mm 5 mps 756 mmHg 95%
    20:00 +10°C° 0.1 mm 5 mps 756 mmHg 96%
    21:00 +11°C° 0.1 mm 4 mps 756 mmHg 96%
    22:00 +10°C° 0 mm 5 mps 755 mmHg 96%
    23:00 +10°C° 0 mm 5 mps 755 mmHg 96%
    Show more